VHCBA YXNS-YSSY

Flight info

Callsign VHCBA
Flight time 0h -5m
Altitude 1500
Route YXNS DCT YSSY HELIPADS
Aircraft H125/L-SDGRY/C

Departure

Time 2026-05-05 08:11
Airport Royal North Shore Hospital Helipad (YXNS)

Arrival

Time 2026-05-05 08:06
Airport Sydney Kingsford Smith International Airport (YSSY)
Time Latitude Longitude Altitude Speed Heading
2026-05-05 08:06 -33.82122 151.19206 395 ft 0 kts 11°
2026-05-05 08:08 -33.82123 151.19204 398 ft 2 kts 20°
2026-05-05 08:08 -33.82077 151.19275 507 ft 31 kts 96°
2026-05-05 08:08 -33.82038 151.19686 670 ft 75 kts 102°
2026-05-05 08:09 -33.82098 151.20289 795 ft 77 kts 103°
2026-05-05 08:09 -33.82244 151.20996 613 ft 90 kts 122°
2026-05-05 08:09 -33.82551 151.21608 588 ft 83 kts 133°
2026-05-05 08:09 -33.82918 151.22058 706 ft 75 kts 147°
2026-05-05 08:10 -33.83338 151.22468 767 ft 82 kts 162°
2026-05-05 08:10 -33.83906 151.22700 812 ft 91 kts 168°
2026-05-05 08:10 -33.84547 151.22887 870 ft 99 kts 168°
2026-05-05 08:10 -33.85271 151.23019 867 ft 111 kts 181°
2026-05-05 08:11 -33.86056 151.22928 857 ft 116 kts 192°
2026-05-05 08:11 -33.86846 151.22709 916 ft 118 kts 199°
2026-05-05 08:11 -33.87594 151.22370 939 ft 114 kts 202°
2026-05-05 08:11 -33.88323 151.22044 985 ft 109 kts 202°
2026-05-05 08:12 -33.89041 151.21739 958 ft 120 kts 196°
2026-05-05 08:12 -33.89901 151.21397 698 ft 136 kts 199°
2026-05-05 08:12 -33.90814 151.21044 494 ft 134 kts 196°
2026-05-05 08:12 -33.91709 151.20802 395 ft 129 kts 199°
2026-05-05 08:13 -33.92521 151.20414 332 ft 120 kts 206°
2026-05-05 08:13 -33.93185 151.19894 270 ft 111 kts 221°
2026-05-05 08:13 -33.93685 151.19336 148 ft 76 kts 222°
2026-05-05 08:13 -33.93910 151.19158 29 ft 9 kts 160°
2026-05-05 08:14 -33.93953 151.19159 29 ft 2 kts 248°
2026-05-05 08:14 -33.93966 151.19127 23 ft 0 kts